| time (UTC) | temp F | wind direction | speed MPH | gust MPH | rain 1hr in | rain 24hr in | rain mn in | humidity % | barometer mb |
| 20260508181508 | 65 | 248 | 2.0 | 5.0 | 0.00 | 0.04 | 0.00 | 53 | 1009.2 |
| 20260508180025 | 64 | 160 | 1.0 | 4.0 | 0.00 | 0.04 | 0.00 | 54 | 1009.3 |
| 20260508174535 | 64 | 194 | 0.0 | 6.0 | 0.00 | 0.04 | 0.00 | 60 | 1009.5 |
| 20260508173021 | 64 | 92 | 2.0 | 5.0 | 0.00 | 0.04 | 0.00 | 56 | 1009.7 |
| 20260508171516 | 63 | 134 | 1.0 | 6.0 | 0.00 | 0.04 | 0.00 | 60 | 1010.0 |
| 20260508170014 | 63 | 253 | 3.0 | 7.0 | 0.00 | 0.04 | 0.00 | 62 | 1010.1 |
| 20260508163039 | 61 | 80 | 0.0 | 4.0 | 0.00 | 0.04 | 0.00 | 63 | 1010.5 |
| 20260508161526 | 61 | 184 | 1.0 | 5.0 | 0.00 | 0.04 | 0.00 | 64 | 1010.9 |
| 20260508160004 | 61 | 161 | 0.0 | 3.0 | 0.00 | 0.04 | 0.00 | 65 | 1010.9 |
| 20260508154521 | 60 | 119 | 1.0 | 4.0 | 0.00 | 0.04 | 0.00 | 69 | 1011.0 |
| 20260508153024 | 59 | 335 | 1.0 | 4.0 | 0.00 | 0.04 | 0.00 | 68 | 1011.2 |
| 20260508151522 | 58 | 221 | 1.0 | 4.0 | 0.00 | 0.04 | 0.00 | 69 | 1011.3 |
| 20260508150011 | 57 | 74 | 1.0 | 4.0 | 0.00 | 0.04 | 0.00 | 70 | 1011.3 |
| 20260508144507 | 56 | 166 | 0.0 | 4.0 | 0.00 | 0.04 | 0.00 | 72 | 1011.5 |
| 20260508143022 | 55 | 221 | 1.0 | 4.0 | 0.00 | 0.04 | 0.00 | 75 | 1011.6 |
| 20260508141521 | 53 | 227 | 0.0 | 4.0 | 0.00 | 0.04 | 0.00 | 77 | 1011.7 |
| 20260508140015 | 52 | 105 | 0.0 | 4.0 | 0.00 | 0.04 | 0.00 | 79 | 1011.8 |
| 20260508133014 | 49 | 79 | 1.0 | 3.0 | 0.00 | 0.04 | 0.00 | 90 | 1011.6 |
| 20260508131510 | 47 | 112 | 0.0 | 2.0 | 0.00 | 0.04 | 0.00 | 93 | 1011.6 |
| 20260508130025 | 46 | 97 | 0.0 | 3.0 | 0.00 | 0.04 | 0.00 | 94 | 1011.6 |
| 20260508124521 | 45 | 101 | 0.0 | 4.0 | 0.00 | 0.04 | 0.00 | 94 | 1011.6 |
| 20260508123024 | 44 | 125 | 0.0 | 3.0 | 0.00 | 0.04 | 0.00 | 94 | 1011.7 |
| 20260508120028 | 42 | 298 | 0.0 | 0.0 | 0.00 | 0.04 | 0.00 | 94 | 1011.5 |
| 20260508114524 | 41 | 298 | 0.0 | 0.0 | 0.00 | 0.04 | 0.00 | 94 | 1011.7 |
| 20260508113026 | 41 | 298 | 0.0 | 0.0 | 0.00 | 0.04 | 0.00 | 94 | 1011.6 |
| 20260508111522 | 40 | 298 | 0.0 | 0.0 | 0.00 | 0.04 | 0.00 | 94 | 1011.4 |
| 20260508110029 | 40 | 298 | 0.0 | 0.0 | 0.00 | 0.04 | 0.00 | 94 | 1011.3 |
| 20260508104517 | 39 | 298 | 0.0 | 0.0 | 0.00 | 0.04 | 0.00 | 94 | 1011.4 |
| 20260508103032 | 38 | 298 | 0.0 | 0.0 | 0.00 | 0.04 | 0.00 | 94 | 1011.6 |
| 20260508101535 | 38 | 298 | 0.0 | 0.0 | 0.00 | 0.04 | 0.00 | 93 | 1011.5 |
| 20260508100011 | 38 | 298 | 0.0 | 0.0 | 0.00 | 0.04 | 0.00 | 94 | 1011.4 |
| 20260508094506 | 37 | 298 | 0.0 | 0.0 | 0.00 | 0.04 | 0.00 | 93 | 1011.6 |
| 20260508093040 | 37 | 298 | 0.0 | 0.0 | 0.00 | 0.04 | 0.00 | 93 | 1011.7 |
| 20260508091524 | 38 | 298 | 0.0 | 0.0 | 0.00 | 0.04 | 0.00 | 93 | 1011.5 |
| 20260508090028 | 38 | 298 | 0.0 | 0.0 | 0.00 | 0.04 | 0.00 | 93 | 1011.6 |
| 20260508084515 | 38 | 298 | 0.0 | 0.0 | 0.00 | 0.04 | 0.00 | 93 | 1011.7 |
| 20260508081509 | 39 | 298 | 0.0 | 0.0 | 0.00 | 0.04 | 0.00 | 92 | 1011.9 |
| 20260508080033 | 39 | 298 | 0.0 | 0.0 | 0.00 | 0.04 | 0.00 | 92 | 1011.8 |
| 20260508074533 | 39 | 298 | 0.0 | 0.0 | 0.00 | 0.04 | 0.00 | 92 | 1012.0 |
| 20260508073022 | 40 | 298 | 0.0 | 0.0 | 0.00 | 0.04 | 0.00 | 92 | 1012.1 |
| 20260508071520 | 40 | 298 | 0.0 | 0.0 | 0.00 | 0.04 | 0.00 | 92 | 1012.1 |
| 20260508070029 | 40 | 298 | 0.0 | 0.0 | 0.00 | 0.04 | 0.00 | 92 | 1012.3 |
| 20260508064527 | 41 | 298 | 0.0 | 0.0 | 0.00 | 0.04 | 0.00 | 92 | 1012.2 |
| 20260508063024 | 41 | 298 | 0.0 | 0.0 | 0.00 | 0.04 | 0.00 | 92 | 1012.1 |
| 20260508061525 | 41 | 298 | 0.0 | 1.0 | 0.00 | 0.04 | 0.00 | 92 | 1012.2 |
| 20260508060022 | 42 | 298 | 0.0 | 0.0 | 0.00 | 0.04 | 0.00 | 91 | 1012.1 |
| 20260508054530 | 42 | 298 | 0.0 | 0.0 | 0.00 | 0.04 | 0.00 | 91 | 1012.0 |
| 20260508053029 | 42 | 298 | 0.0 | 0.0 | 0.00 | 0.04 | 0.00 | 91 | 1011.9 |
| 20260508051527 | 43 | 298 | 0.0 | 0.0 | 0.00 | 0.04 | 0.00 | 91 | 1011.9 |
| 20260508050029 | 43 | 298 | 0.0 | 0.0 | 0.00 | 0.04 | 0.00 | 91 | 1011.9 |
| 20260508044525 | 43 | 298 | 0.0 | 0.0 | 0.00 | 0.04 | 0.04 | 91 | 1011.7 |
| 20260508041533 | 43 | 298 | 0.0 | 1.0 | 0.00 | 0.04 | 0.04 | 90 | 1011.7 |
| 20260508040020 | 44 | 298 | 0.0 | 1.0 | 0.00 | 0.04 | 0.04 | 91 | 1011.5 |
| 20260508034519 | 44 | 310 | 0.0 | 0.0 | 0.00 | 0.04 | 0.04 | 90 | 1011.4 |
| 20260508033018 | 44 | 310 | 0.0 | 0.0 | 0.00 | 0.04 | 0.04 | 89 | 1011.3 |
| 20260508031508 | 44 | 310 | 0.0 | 0.0 | 0.00 | 0.04 | 0.04 | 89 | 1011.3 |
| 20260508024504 | 45 | 310 | 0.0 | 0.0 | 0.00 | 0.04 | 0.04 | 88 | 1011.2 |
| 20260508023035 | 45 | 310 | 0.0 | 0.0 | 0.00 | 0.04 | 0.04 | 86 | 1011.1 |
| 20260508021521 | 46 | 310 | 0.0 | 1.0 | 0.00 | 0.04 | 0.04 | 86 | 1010.9 |
| 20260508020013 | 47 | 310 | 0.0 | 0.0 | 0.00 | 0.04 | 0.04 | 84 | 1010.8 |
| 20260508014509 | 48 | 310 | 0.0 | 0.0 | 0.00 | 0.04 | 0.04 | 83 | 1010.5 |
| 20260508013006 | 49 | 310 | 0.0 | 0.0 | 0.00 | 0.04 | 0.04 | 82 | 1010.3 |
| 20260508011506 | 50 | 310 | 0.0 | 0.0 | 0.00 | 0.04 | 0.04 | 80 | 1010.3 |
| 20260508010037 | 52 | 310 | 0.0 | 0.0 | 0.00 | 0.04 | 0.04 | 79 | 1010.2 |
| 20260508004524 | 54 | 310 | 0.0 | 0.0 | 0.00 | 0.04 | 0.04 | 77 | 1010.1 |
| 20260508003020 | 55 | 310 | 0.0 | 0.0 | 0.00 | 0.04 | 0.04 | 74 | 1010.1 |
| 20260508001523 | 56 | 310 | 0.0 | 3.0 | 0.00 | 0.04 | 0.04 | 58 | 1010.0 |
| 20260508000012 | 56 | 267 | 1.0 | 6.0 | 0.00 | 0.04 | 0.04 | 57 | 1010.0 |
| 20260507233022 | 55 | 309 | 0.0 | 3.0 | 0.00 | 0.04 | 0.04 | 65 | 1010.1 |
| 20260507231520 | 55 | 250 | 0.0 | 3.0 | 0.00 | 0.04 | 0.04 | 75 | 1010.1 |
| 20260507230019 | 54 | 208 | 0.0 | 2.0 | 0.00 | 0.04 | 0.04 | 74 | 1010.6 |
| 20260507224515 | 54 | 190 | 0.0 | 2.0 | 0.04 | 0.04 | 0.04 | 81 | 1010.7 |
| 20260507221533 | 54 | 214 | 0.0 | 2.0 | 0.04 | 0.04 | 0.04 | 76 | 1011.0 |
| 20260507220030 | 53 | 281 | 0.0 | 4.0 | 0.04 | 0.04 | 0.04 | 78 | 1011.1 |
| 20260507214524 | 56 | 333 | 3.0 | 10.0 | 0.00 | 0.00 | 0.00 | 56 | 1011.1 |
| 20260507213029 | 59 | 258 | 2.0 | 8.0 | 0.00 | 0.00 | 0.00 | 48 | 1010.6 |
| 20260507211515 | 61 | 234 | 3.0 | 9.0 | 0.00 | 0.00 | 0.00 | 47 | 1010.3 |
| 20260507204524 | 60 | 324 | 4.0 | 19.0 | 0.00 | 0.00 | 0.00 | 47 | 1010.4 |
| 20260507203025 | 61 | 194 | 5.0 | 9.0 | 0.00 | 0.00 | 0.00 | 50 | 1010.7 |
| 20260507201532 | 60 | 215 | 5.0 | 13.0 | 0.00 | 0.00 | 0.00 | 51 | 1011.1 |
| 20260507200035 | 60 | 168 | 3.0 | 12.0 | 0.00 | 0.00 | 0.00 | 53 | 1011.2 |
| 20260507193026 | 58 | 204 | 3.0 | 18.0 | 0.00 | 0.00 | 0.00 | 54 | 1011.8 |
| 20260507191530 | 58 | 192 | 4.0 | 12.0 | 0.00 | 0.00 | 0.00 | 54 | 1012.2 |
| 20260507190005 | 57 | 202 | 3.0 | 10.0 | 0.00 | 0.00 | 0.00 | 52 | 1012.3 |
| 20260507184505 | 59 | 159 | 4.0 | 12.0 | 0.00 | 0.00 | 0.00 | 47 | 1012.3 |
| 20260507183006 | 59 | 238 | 4.0 | 13.0 | 0.00 | 0.00 | 0.00 | 46 | 1012.5 |